| time (UTC) | temp F | wind direction | speed MPH | gust MPH | rain 1hr in | rain 24hr in | rain mn in | humidity % | barometer mb |
| 20260510213344 | 67 | 270 | 8.0 | 15.0 | 0.00 | 0.01 | 0.01 | 35 | 1013.0 |
| 20260510211846 | 67 | 322 | 6.0 | 15.0 | 0.00 | 0.01 | 0.01 | 35 | 1012.9 |
| 20260510210434 | 67 | 323 | 7.0 | 14.0 | 0.00 | 0.01 | 0.01 | 39 | 1012.8 |
| 20260510210331 | 67 | 323 | 7.0 | 14.0 | 0.00 | 0.01 | 0.01 | 39 | 1012.8 |
| 20260510204924 | 68 | 305 | 7.0 | 12.0 | 0.00 | 0.06 | 0.01 | 38 | 1012.5 |
| 20260510203407 | 68 | 226 | 5.0 | 12.0 | 0.00 | 0.06 | 0.01 | 38 | 1012.5 |
| 20260510201831 | 68 | 273 | 10.0 | 15.0 | 0.00 | 0.06 | 0.01 | 40 | 1012.6 |
| 20260510200449 | 68 | 282 | 7.0 | 11.0 | 0.00 | 0.06 | 0.01 | 42 | 1012.5 |
| 20260510200346 | 68 | 282 | 7.0 | 11.0 | 0.00 | 0.06 | 0.01 | 42 | 1012.5 |
| 20260510194850 | 68 | 332 | 7.0 | 13.0 | 0.00 | 0.13 | 0.01 | 44 | 1012.6 |
| 20260510193428 | 68 | 202 | 6.0 | 16.0 | 0.00 | 0.13 | 0.01 | 43 | 1012.6 |
| 20260510191829 | 68 | 343 | 5.0 | 16.0 | 0.00 | 0.13 | 0.01 | 43 | 1012.6 |
| 20260510190413 | 69 | 254 | 5.0 | 15.0 | 0.00 | 0.13 | 0.01 | 45 | 1012.6 |
| 20260510184836 | 68 | 217 | 5.0 | 12.0 | 0.00 | 0.18 | 0.01 | 46 | 1012.6 |
| 20260510184820 | 67 | 12 | 2.0 | 4.0 | 0.00 | 0.28 | 0.02 | 64 | 1011.3 |
| 20260510183341 | 67 | 228 | 3.0 | 9.0 | 0.00 | 0.18 | 0.01 | 49 | 1012.6 |
| 20260510183318 | 66 | 308 | 3.0 | 8.0 | 0.00 | 0.28 | 0.02 | 65 | 1011.4 |
| 20260510181848 | 66 | 315 | 2.0 | 5.0 | 0.00 | 0.18 | 0.01 | 61 | 1012.5 |
| 20260510181818 | 65 | 269 | 6.0 | 12.0 | 0.00 | 0.34 | 0.02 | 67 | 1011.3 |
| 20260510180416 | 65 | 324 | 2.0 | 9.0 | 0.00 | 0.18 | 0.01 | 63 | 1012.6 |
| 20260510180316 | 63 | 36 | 0.0 | 4.0 | 0.00 | 0.34 | 0.02 | 76 | 1011.4 |
| 20260510174835 | 62 | 158 | 7.0 | 9.0 | 0.00 | 0.34 | 0.02 | 79 | 1011.4 |
| 20260510174830 | 66 | 322 | 3.0 | 9.0 | 0.00 | 0.25 | 0.01 | 63 | 1012.7 |
| 20260510173420 | 62 | 136 | 5.0 | 15.0 | 0.00 | 0.34 | 0.02 | 79 | 1011.6 |
| 20260510173334 | 66 | 255 | 3.0 | 8.0 | 0.00 | 0.25 | 0.01 | 64 | 1012.7 |
| 20260510171925 | 65 | 223 | 1.0 | 8.0 | 0.00 | 0.25 | 0.01 | 70 | 1012.9 |
| 20260510171827 | 62 | 150 | 5.0 | 9.0 | 0.00 | 0.41 | 0.02 | 80 | 1011.7 |
| 20260510170413 | 63 | 286 | 2.0 | 4.0 | 0.00 | 0.25 | 0.01 | 73 | 1013.0 |
| 20260510170328 | 62 | 292 | 1.0 | 3.0 | 0.00 | 0.41 | 0.02 | 81 | 1011.8 |
| 20260510164917 | 63 | 263 | 1.0 | 7.0 | 0.00 | 0.41 | 0.02 | 79 | 1011.8 |
| 20260510164829 | 61 | 166 | 3.0 | 6.0 | 0.00 | 0.32 | 0.01 | 73 | 1013.1 |
| 20260510163340 | 62 | 158 | 1.0 | 9.0 | 0.00 | 0.32 | 0.01 | 72 | 1013.0 |
| 20260510163336 | 63 | 255 | 1.0 | 6.0 | 0.00 | 0.41 | 0.02 | 78 | 1011.7 |
| 20260510161933 | 62 | 246 | 4.0 | 9.0 | 0.00 | 0.32 | 0.01 | 72 | 1012.8 |
| 20260510161850 | 62 | 246 | 4.0 | 9.0 | 0.00 | 0.32 | 0.01 | 72 | 1012.8 |
| 20260510161831 | 62 | 173 | 4.0 | 7.0 | 0.00 | 0.48 | 0.02 | 79 | 1011.5 |
| 20260510160348 | 62 | 158 | 3.0 | 8.0 | 0.00 | 0.32 | 0.01 | 73 | 1012.8 |
| 20260510154852 | 61 | 237 | 3.0 | 11.0 | 0.00 | 0.38 | 0.01 | 78 | 1012.7 |
| 20260510154842 | 58 | 140 | 6.0 | 10.0 | 0.00 | 0.48 | 0.02 | 85 | 1011.6 |
| 20260510153408 | 58 | 152 | 6.0 | 11.0 | 0.00 | 0.48 | 0.02 | 87 | 1011.8 |
| 20260510153403 | 59 | 152 | 4.0 | 9.0 | 0.00 | 0.38 | 0.01 | 81 | 1012.8 |
| 20260510151827 | 57 | 137 | 7.0 | 10.0 | 0.00 | 0.38 | 0.01 | 82 | 1013.0 |
| 20260510151824 | 56 | 144 | 4.0 | 9.0 | 0.00 | 0.53 | 0.02 | 90 | 1011.8 |
| 20260510150435 | 57 | 125 | 5.0 | 11.0 | 0.00 | 0.38 | 0.01 | 81 | 1012.8 |
| 20260510150342 | 56 | 146 | 9.0 | 12.0 | 0.00 | 0.53 | 0.02 | 90 | 1011.6 |
| 20260510144852 | 55 | 133 | 4.0 | 10.0 | 0.00 | 0.41 | 0.01 | 84 | 1012.8 |
| 20260510144840 | 55 | 158 | 6.0 | 11.0 | 0.00 | 0.53 | 0.02 | 92 | 1011.8 |
| 20260510143401 | 55 | 188 | 4.0 | 9.0 | 0.00 | 0.41 | 0.01 | 83 | 1013.2 |
| 20260510143336 | 54 | 148 | 6.0 | 12.0 | 0.00 | 0.53 | 0.02 | 92 | 1011.9 |
| 20260510141844 | 55 | 151 | 4.0 | 10.0 | 0.00 | 0.41 | 0.01 | 84 | 1013.0 |
| 20260510141841 | 54 | 153 | 6.0 | 12.0 | 0.00 | 0.56 | 0.02 | 92 | 1011.9 |
| 20260510140435 | 54 | 156 | 4.0 | 8.0 | 0.00 | 0.41 | 0.01 | 85 | 1013.0 |
| 20260510140358 | 54 | 148 | 6.0 | 10.0 | 0.00 | 0.56 | 0.02 | 92 | 1011.8 |
| 20260510134932 | 54 | 130 | 4.0 | 10.0 | 0.00 | 0.43 | 0.01 | 86 | 1013.0 |
| 20260510134836 | 53 | 146 | 3.0 | 7.0 | 0.00 | 0.56 | 0.02 | 92 | 1011.8 |
| 20260510133423 | 53 | 124 | 3.0 | 6.0 | 0.00 | 0.43 | 0.01 | 86 | 1013.2 |
| 20260510133313 | 53 | 142 | 4.0 | 8.0 | 0.00 | 0.56 | 0.02 | 93 | 1012.0 |
| 20260510131902 | 53 | 142 | 2.0 | 6.0 | 0.00 | 0.57 | 0.02 | 94 | 1011.9 |
| 20260510131828 | 53 | 289 | 3.0 | 7.0 | 0.00 | 0.43 | 0.01 | 86 | 1013.4 |
| 20260510130413 | 52 | 149 | 3.0 | 9.0 | 0.00 | 0.43 | 0.01 | 87 | 1013.3 |
| 20260510130339 | 53 | 200 | 3.0 | 8.0 | 0.00 | 0.57 | 0.02 | 94 | 1011.8 |
| 20260510124902 | 52 | 146 | 2.0 | 5.0 | 0.00 | 0.57 | 0.02 | 94 | 1011.7 |
| 20260510124851 | 52 | 173 | 4.0 | 6.0 | 0.00 | 0.43 | 0.01 | 87 | 1013.1 |
| 20260510123337 | 52 | 280 | 1.0 | 6.0 | 0.00 | 0.43 | 0.01 | 87 | 1013.0 |
| 20260510123320 | 52 | 117 | 2.0 | 5.0 | 0.00 | 0.57 | 0.02 | 95 | 1011.6 |
| 20260510121903 | 52 | 115 | 2.0 | 9.0 | 0.00 | 0.57 | 0.02 | 95 | 1011.5 |
| 20260510121841 | 51 | 189 | 3.0 | 6.0 | 0.00 | 0.43 | 0.01 | 88 | 1012.9 |
| 20260510120330 | 51 | 114 | 2.0 | 6.0 | 0.00 | 0.43 | 0.01 | 87 | 1013.2 |
| 20260510120321 | 52 | 100 | 1.0 | 4.0 | 0.00 | 0.57 | 0.02 | 95 | 1011.8 |
| 20260510114841 | 52 | 138 | 2.0 | 6.0 | 0.00 | 0.57 | 0.02 | 95 | 1011.9 |
| 20260510114833 | 51 | 148 | 4.0 | 9.0 | 0.00 | 0.43 | 0.01 | 88 | 1013.2 |
| 20260510113345 | 51 | 140 | 2.0 | 4.0 | 0.00 | 0.43 | 0.01 | 88 | 1013.3 |
| 20260510113321 | 52 | 335 | 1.0 | 4.0 | 0.00 | 0.57 | 0.02 | 95 | 1012.0 |
| 20260510111846 | 51 | 114 | 2.0 | 7.0 | 0.00 | 0.43 | 0.01 | 88 | 1012.7 |
| 20260510111820 | 51 | 131 | 3.0 | 11.0 | 0.00 | 0.57 | 0.02 | 96 | 1011.3 |
| 20260510110349 | 51 | 141 | 4.0 | 9.0 | 0.00 | 0.43 | 0.01 | 88 | 1012.6 |
| 20260510110323 | 51 | 155 | 0.0 | 5.0 | 0.00 | 0.57 | 0.02 | 96 | 1011.7 |
| 20260510104905 | 51 | 220 | 1.0 | 4.0 | 0.00 | 0.57 | 0.02 | 96 | 1011.4 |
| 20260510104846 | 50 | 153 | 3.0 | 8.0 | 0.00 | 0.43 | 0.01 | 88 | 1012.5 |
| 20260510103437 | 50 | 79 | 6.0 | 13.0 | 0.00 | 0.43 | 0.01 | 88 | 1012.2 |
| 20260510103324 | 51 | 151 | 3.0 | 10.0 | 0.00 | 0.57 | 0.02 | 97 | 1010.8 |
| 20260510101859 | 50 | 266 | 1.0 | 4.0 | 0.00 | 0.43 | 0.01 | 89 | 1012.0 |
| 20260510101851 | 51 | 190 | 2.0 | 4.0 | 0.00 | 0.57 | 0.02 | 97 | 1010.8 |
| 20260510100340 | 50 | 111 | 3.0 | 8.0 | 0.00 | 0.43 | 0.01 | 88 | 1011.6 |
| 20260510100326 | 50 | 117 | 1.0 | 4.0 | 0.00 | 0.57 | 0.02 | 97 | 1010.4 |
| 20260510094857 | 50 | 167 | 2.0 | 4.0 | 0.00 | 0.57 | 0.02 | 97 | 1010.4 |
| 20260510094846 | 50 | 132 | 1.0 | 6.0 | 0.00 | 0.43 | 0.01 | 89 | 1011.6 |
| 20260510093333 | 50 | 222 | 1.0 | 3.0 | 0.00 | 0.57 | 0.02 | 97 | 1010.1 |
| 20260510091903 | 50 | 87 | 4.0 | 10.0 | 0.00 | 0.43 | 0.01 | 88 | 1011.3 |
| 20260510091855 | 50 | 217 | 2.0 | 9.0 | 0.00 | 0.57 | 0.02 | 97 | 1009.8 |
| 20260510090334 | 50 | 131 | 0.0 | 7.0 | 0.00 | 0.57 | 0.02 | 97 | 1010.0 |
| 20260510090326 | 50 | 139 | 4.0 | 9.0 | 0.00 | 0.43 | 0.01 | 89 | 1011.2 |
| 20260510084850 | 50 | 90 | 5.0 | 9.0 | 0.00 | 0.43 | 0.01 | 89 | 1011.4 |
| 20260510084826 | 50 | 275 | 2.0 | 5.0 | 0.00 | 0.57 | 0.02 | 97 | 1010.1 |
| 20260510083359 | 50 | 130 | 2.0 | 8.0 | 0.00 | 0.43 | 0.01 | 89 | 1011.8 |
| 20260510083329 | 50 | 126 | 1.0 | 2.0 | 0.00 | 0.57 | 0.02 | 97 | 1010.4 |
| 20260510081913 | 50 | 244 | 1.0 | 2.0 | 0.00 | 0.57 | 0.02 | 97 | 1010.7 |
| 20260510081852 | 50 | 141 | 4.0 | 7.0 | 0.00 | 0.43 | 0.01 | 89 | 1011.9 |
| 20260510080420 | 50 | 273 | 1.0 | 2.0 | 0.00 | 0.57 | 0.02 | 97 | 1010.6 |
| 20260510080354 | 50 | 114 | 3.0 | 8.0 | 0.00 | 0.43 | 0.01 | 89 | 1011.8 |
| 20260510074920 | 50 | 149 | 3.0 | 10.0 | 0.00 | 0.43 | 0.01 | 89 | 1011.8 |
| 20260510074834 | 50 | 121 | 1.0 | 2.0 | 0.00 | 0.57 | 0.02 | 98 | 1010.5 |
| 20260510073412 | 50 | 161 | 1.0 | 7.0 | 0.00 | 0.43 | 0.01 | 89 | 1011.8 |
| 20260510073329 | 50 | 161 | 1.0 | 7.0 | 0.00 | 0.43 | 0.01 | 89 | 1011.8 |
| 20260510071923 | 50 | 126 | 3.0 | 8.0 | 0.00 | 0.43 | 0.01 | 89 | 1011.6 |
| 20260510071840 | 50 | 126 | 3.0 | 8.0 | 0.00 | 0.43 | 0.01 | 89 | 1011.6 |
| 20260510071831 | 50 | 123 | 1.0 | 4.0 | 0.00 | 0.57 | 0.02 | 97 | 1010.2 |
| 20260510070430 | 50 | 94 | 4.0 | 7.0 | 0.00 | 0.43 | 0.01 | 89 | 1011.5 |
| 20260510070353 | 51 | 118 | 3.0 | 6.0 | 0.00 | 0.57 | 0.02 | 97 | 1010.2 |
| 20260510064929 | 50 | 112 | 1.0 | 4.0 | 0.00 | 0.43 | 0.01 | 89 | 1011.6 |
| 20260510064919 | 51 | 284 | 0.0 | 7.0 | 0.00 | 0.57 | 0.02 | 97 | 1010.2 |
| 20260510064825 | 50 | 112 | 1.0 | 4.0 | 0.00 | 0.43 | 0.01 | 89 | 1011.6 |
| 20260510063425 | 50 | 121 | 3.0 | 3.0 | 0.00 | 0.43 | 0.01 | 89 | 1011.6 |
| 20260510063314 | 51 | 317 | 1.0 | 2.0 | 0.01 | 0.57 | 0.02 | 97 | 1010.2 |
| 20260510061905 | 50 | 129 | 1.0 | 4.0 | 0.00 | 0.43 | 0.01 | 89 | 1011.6 |
| 20260510061813 | 51 | 171 | 0.0 | 8.0 | 0.01 | 0.57 | 0.02 | 98 | 1010.1 |
| 20260510060418 | 50 | 151 | 2.0 | 3.0 | 0.01 | 0.57 | 0.02 | 97 | 1010.4 |
| 20260510060350 | 50 | 109 | 2.0 | 4.0 | 0.00 | 0.43 | 0.01 | 89 | 1011.8 |
| 20260510054837 | 50 | 108 | 2.0 | 3.0 | 0.00 | 0.43 | 0.01 | 90 | 1011.6 |
| 20260510054834 | 50 | 148 | 0.0 | 0.0 | 0.01 | 0.57 | 0.02 | 97 | 1010.2 |
| 20260510053400 | 50 | 148 | 0.0 | 1.0 | 0.00 | 0.56 | 0.01 | 97 | 1010.6 |
| 20260510053356 | 48 | 87 | 2.0 | 3.0 | 0.00 | 0.43 | 0.01 | 89 | 1011.8 |
| 20260510051911 | 49 | 221 | 0.0 | 0.0 | 0.00 | 0.43 | 0.01 | 89 | 1011.9 |
| 20260510051814 | 50 | 148 | 1.0 | 4.0 | 0.01 | 0.56 | 0.01 | 97 | 1010.4 |
| 20260510050414 | 50 | 197 | 0.0 | 2.0 | 0.00 | 0.43 | 0.01 | 89 | 1011.8 |
| 20260510050313 | 51 | 143 | 5.0 | 7.0 | 0.01 | 0.56 | 0.01 | 97 | 1010.2 |
| 20260510044827 | 51 | 152 | 3.0 | 5.0 | 0.01 | 0.56 | 0.01 | 97 | 1010.5 |
| 20260510043336 | 49 | 158 | 3.0 | 6.0 | 0.01 | 0.43 | 0.01 | 89 | 1012.0 |
| 20260510043330 | 50 | 146 | 2.0 | 3.0 | 0.01 | 0.56 | 0.01 | 97 | 1010.6 |
| 20260510041844 | 50 | 224 | 0.0 | 5.0 | 0.00 | 0.55 | 0.55 | 97 | 1010.6 |
| 20260510041837 | 48 | 66 | 3.0 | 4.0 | 0.01 | 0.43 | 0.01 | 89 | 1012.1 |
| 20260510040407 | 50 | 117 | 0.0 | 2.0 | 0.00 | 0.55 | 0.55 | 96 | 1010.7 |
| 20260510040341 | 48 | 168 | 0.0 | 0.0 | 0.01 | 0.43 | 0.01 | 89 | 1012.2 |
| 20260510034913 | 48 | 168 | 0.0 | 0.0 | 0.00 | 0.42 | 0.42 | 89 | 1012.2 |
| 20260510034850 | 50 | 193 | 0.0 | 5.0 | 0.00 | 0.55 | 0.55 | 96 | 1010.7 |
| 20260510033336 | 48 | 212 | 0.0 | 1.0 | 0.00 | 0.42 | 0.42 | 88 | 1012.2 |
| 20260510033327 | 51 | 173 | 0.0 | 7.0 | 0.00 | 0.55 | 0.55 | 96 | 1010.7 |
| 20260510031840 | 49 | 161 | 0.0 | 2.0 | 0.00 | 0.42 | 0.42 | 89 | 1012.0 |
| 20260510031831 | 51 | 153 | 5.0 | 7.0 | 0.00 | 0.55 | 0.55 | 96 | 1010.6 |
| 20260510030333 | 51 | 150 | 6.0 | 8.0 | 0.00 | 0.55 | 0.55 | 96 | 1010.6 |
| 20260510030328 | 49 | 118 | 1.0 | 5.0 | 0.00 | 0.42 | 0.42 | 89 | 1012.1 |
| 20260510024919 | 49 | 87 | 3.0 | 6.0 | 0.00 | 0.42 | 0.42 | 89 | 1012.1 |
| 20260510024837 | 49 | 87 | 3.0 | 6.0 | 0.00 | 0.42 | 0.42 | 89 | 1012.1 |
| 20260510024831 | 51 | 154 | 4.0 | 6.0 | 0.00 | 0.55 | 0.55 | 96 | 1010.7 |
| 20260510023326 | 49 | 89 | 2.0 | 7.0 | 0.00 | 0.42 | 0.42 | 89 | 1012.3 |
| 20260510023314 | 50 | 153 | 5.0 | 8.0 | 0.00 | 0.55 | 0.55 | 96 | 1010.9 |
| 20260510021846 | 49 | 141 | 0.0 | 4.0 | 0.00 | 0.42 | 0.42 | 89 | 1012.5 |
| 20260510021836 | 51 | 120 | 2.0 | 9.0 | 0.00 | 0.55 | 0.55 | 96 | 1011.1 |
| 20260510020337 | 51 | 150 | 6.0 | 12.0 | 0.01 | 0.55 | 0.55 | 97 | 1011.2 |
| 20260510020332 | 48 | 143 | 0.0 | 2.0 | 0.00 | 0.42 | 0.42 | 89 | 1012.6 |
| 20260510014837 | 50 | 155 | 1.0 | 3.0 | 0.01 | 0.55 | 0.55 | 97 | 1011.3 |
| 20260510014832 | 47 | 101 | 0.0 | 0.0 | 0.00 | 0.42 | 0.42 | 89 | 1012.6 |
| 20260510013419 | 47 | 101 | 0.0 | 2.0 | 0.00 | 0.42 | 0.42 | 89 | 1012.5 |
| 20260510013338 | 50 | 263 | 1.0 | 7.0 | 0.01 | 0.55 | 0.55 | 97 | 1011.2 |
| 20260510011838 | 50 | 129 | 2.0 | 4.0 | 0.01 | 0.55 | 0.55 | 97 | 1011.1 |
| 20260510011829 | 47 | 101 | 0.0 | 0.0 | 0.00 | 0.42 | 0.42 | 89 | 1012.6 |
| 20260510010329 | 47 | 101 | 0.0 | 3.0 | 0.00 | 0.42 | 0.42 | 89 | 1012.4 |
| 20260510010322 | 49 | 86 | 0.0 | 1.0 | 0.01 | 0.54 | 0.54 | 96 | 1011.1 |
| 20260510004842 | 50 | 88 | 0.0 | 4.0 | 0.01 | 0.54 | 0.54 | 95 | 1010.8 |
| 20260510004838 | 47 | 122 | 0.0 | 1.0 | 0.00 | 0.42 | 0.42 | 89 | 1012.3 |
| 20260510003404 | 47 | 122 | 0.0 | 2.0 | 0.00 | 0.42 | 0.42 | 89 | 1012.2 |
| 20260510003338 | 50 | 155 | 3.0 | 6.0 | 0.02 | 0.54 | 0.54 | 96 | 1010.8 |
| 20260510001933 | 47 | 122 | 0.0 | 2.0 | 0.00 | 0.42 | 0.42 | 89 | 1012.0 |
| 20260510001847 | 50 | 138 | 4.0 | 7.0 | 0.02 | 0.54 | 0.54 | 96 | 1010.5 |
| 20260510000344 | 50 | 149 | 4.0 | 7.0 | 0.02 | 0.53 | 0.53 | 96 | 1010.4 |
| 20260510000334 | 47 | 247 | 0.0 | 4.0 | 0.00 | 0.42 | 0.42 | 89 | 1011.9 |
| 20260509234837 | 47 | 274 | 0.0 | 0.0 | 0.00 | 0.42 | 0.42 | 89 | 1011.9 |
| 20260509234824 | 50 | 138 | 5.0 | 8.0 | 0.03 | 0.53 | 0.53 | 97 | 1010.4 |
| 20260509233407 | 50 | 213 | 0.0 | 6.0 | 0.02 | 0.52 | 0.52 | 96 | 1010.4 |
| 20260509233327 | 47 | 182 | 0.0 | 2.0 | 0.00 | 0.42 | 0.42 | 89 | 1011.8 |
| 20260509231831 | 47 | 197 | 0.0 | 3.0 | 0.00 | 0.42 | 0.42 | 89 | 1011.8 |
| 20260509231827 | 50 | 134 | 1.0 | 4.0 | 0.03 | 0.52 | 0.52 | 97 | 1010.4 |
| 20260509230424 | 47 | 3 | 0.0 | 2.0 | 0.00 | 0.42 | 0.42 | 89 | 1011.9 |
| 20260509230328 | 50 | 113 | 0.0 | 1.0 | 0.03 | 0.51 | 0.51 | 96 | 1010.5 |
| 20260509224932 | 47 | 12 | 0.0 | 3.0 | 0.00 | 0.42 | 0.42 | 89 | 1012.0 |
| 20260509224845 | 49 | 197 | 0.0 | 1.0 | 0.03 | 0.50 | 0.50 | 96 | 1010.5 |
| 20260509223354 | 47 | 327 | 2.0 | 3.0 | 0.00 | 0.42 | 0.42 | 89 | 1011.8 |
| 20260509223326 | 49 | 150 | 1.0 | 6.0 | 0.04 | 0.50 | 0.50 | 96 | 1010.3 |
| 20260509221841 | 46 | 293 | 0.0 | 1.0 | 0.00 | 0.42 | 0.42 | 89 | 1011.6 |
| 20260509221826 | 49 | 115 | 2.0 | 4.0 | 0.04 | 0.49 | 0.49 | 96 | 1010.4 |
| 20260509220408 | 46 | 293 | 0.0 | 2.0 | 0.00 | 0.42 | 0.42 | 88 | 1011.8 |
| 20260509220315 | 49 | 137 | 2.0 | 5.0 | 0.04 | 0.48 | 0.48 | 96 | 1010.4 |
| 20260509214858 | 49 | 135 | 1.0 | 3.0 | 0.05 | 0.47 | 0.47 | 96 | 1010.4 |
| 20260509214852 | 46 | 292 | 0.0 | 0.0 | 0.01 | 0.42 | 0.42 | 89 | 1011.8 |